Location: *
(34.8620°S, 39.3380°E)
Time: 20:28:15
(UTC+00:00)

Lacrosse 4 Rocket - Pass Details

Date: 03 December 2021
Orbit: 535 x 620 km, 68.0° (Epoch: 24 January)

Event Time Altitude Azimuth Distance (km) Brightness Sun altitude
Rises 19:21:07 0° 226° (SW) 2,724 6.0 -27.1°
Reaches altitude 10° 19:24:02 10° 248° (WSW) 1,815 4.6 -27.4°
Enters shadow 19:26:00 15° 277° (W) 1,492 3.7 -27.6°
